OneWeb SL0584

operational
NORAD ID: 54651 Int'l Des: 2022-166 Owner: ONEWEBN Country: UK Constellation: oneweb
LEOCIRCULARPOLARONEWEB_TYPE

About OneWeb SL0584

Description loading...

Live Position

Loading 3D Globe...

Upcoming Passes

Altitude History

Altitude vs Time

uPlot chart will show altitude changes over time

Two-Line Element Set

1 54651U 22166K 26066.04805987 .00000105 00000-0 22166-3 0 9995
2 54651 87.9162 264.3547 0001333 81.3568 278.7717 13.21826494158023
Epoch: Mar 7, 2026 • Age: 15 hours

Current Status

Altitude 1194.3 km
Velocity 7.26 km/s
Sub-Earth Point -41.11°S, 55.94°E
Launch Date Dec 8, 2022
Age 3.2 years
Type internet

Technical Details

Classification Payload
Mass 148.00 kg
Dry Mass 140.00 kg
Total Mass 148.00 kg
Length 1.30 m
Diameter 1.00 m
Span 5.00 m
Shape Trapezoid+2 pan
Manufacturer ONEWUS
Bus Type ARROW
Phase Status In Orbit
Owner/State ONEWEBN/UK

Large Constellations

Loading constellations...